Regional Weather Roundup
Issued by NWS Green Bay, WI

Home | Current Version | Previous Version | Text Only | Print | Product List | Glossary On
Versions: 1 2 3 4 5 6 7 8 9 10 11 12 13 14 15 16 17 18 19 20 21 22 23 24 25 26 27 28 29 30 31 32 33 34 35 36 37 38 39 40 41 42 43 44 45 46 47 48 49 50
000
ASUS43 KGRB 291000
RWRGRB

NORTH-CENTRAL AND NORTHEAST WISCONSIN REGIONAL WEATHER ROUNDUP
NATIONAL WEATHER SERVICE GREEN BAY WI
500 AM CDT FRI MAY 29 2015

WIZ005-009-010>012-018-019-291100-
NORTH CENTRAL WISCONSIN

CITY           SKY/WX    TMP DP  RH WIND       PRES   REMARKS
IRONWOOD       CLOUDY    66  54  63 SW10G20   29.89S
MANITOWISH WTR NOT AVBL
ARBOR VITAE    NOT AVBL
EAGLE RIVER    NOT AVBL
LAND O LAKES   NOT AVBL
RHINELANDER    CLOUDY    64  53  67 S6        29.98F
PHILLIPS       NOT AVBL
ANTIGO         NOT AVBL
TOMAHAWK       NOT AVBL
MERRILL        NOT AVBL
$$

WIZ013-073-291100-
NORTHEAST WISCONSIN

CITY           SKY/WX    TMP DP  RH WIND       PRES   REMARKS
IRON MOUNTAIN  MOCLDY    58  55  90 SE5       29.98F
MARINETTE      CLOUDY    63  54  72 S8        29.99F
$$

WIZ017-030-035>037-045-291100-
CENTRAL WISCONSIN

CITY           SKY/WX    TMP DP  RH WIND       PRES   REMARKS
MEDFORD        NOT AVBL
WAUSAU         LGT RAIN  65  56  72 SW6       29.98S
MOSINEE        NOT AVBL
MARSHFIELD     RAIN      62  57  83 S9        29.98F
WISC RAPIDS    LGT RAIN  62  58  86 S5        29.99F
STEVENS POINT  NOT AVBL
WAUPACA        NOT AVBL
SHAWANO        NOT AVBL
CLINTONVILLE   NOT AVBL
$$

WIZ038-039-048-051-291100-
FOX VALLEY

CITY           SKY/WX    TMP DP  RH WIND       PRES   REMARKS
NWS GREEN BAY  CLOUDY    67  56  67 S12       29.99F
APPLETON       NOT AVBL
OSHKOSH        CLOUDY    66  56  70 VRB5      30.00S
FOND DU LAC    CLOUDY    66  57  72 SW8       30.00S
$$

WIZ022-050-052-291100-
EAST CENTRAL WISCONSIN

CITY           SKY/WX    TMP DP  RH WIND       PRES   REMARKS
STURGEON BAY   CLOUDY    61  52  72 S14       30.03F
MANITOWOC      NOT AVBL
SHEBOYGAN      CLOUDY    60  53  77 S5        30.01F
$$

LMZ563-521-522-541>543-291100-
LAKESHORE

STATION/POSITION TIME  TEMP    WIND        PRES    VSBY  WAVE
                       AIR SEA DIR/SP/G                  HT/PER
                 (UTC) (F)     (DEG/KT/KT) (MB)    (MI)  (FT/S)
SHEBOYGAN LKSHOR 0900   56     180/ 10/ 10 1017.3F
KEWAUNEE LKSHORE 0900   52     170/  3/  7 1016.4F
ALGOMA MARINA    0908             CALM       N/A
NORTHPORT PIER   0900   58     150/  8/ 11 1016.9F
N MID LAKE BUOY  0850   45 36  190/  6/  6 1018.0F         1/ 4
CHAMBERS ISLAND  0900   63     140/  6/ 12 1016.3F
MENOMINEE LKSHOR 0900   62     170/  9/ 10 1016.7F
$$



USA.gov is the U.S. government's official web portal to all federal, state and local government web resources and services.